Location: Newark
(41.6500°N, 71.4833°W)
Time: 04:47:06
(UTC+00:00)

A-11 Canister half - Pass Details

Date: 29 January 2020
Orbit: 1517 x 1683 km, 47.2° (Epoch: 19 February)

Event Time Altitude Azimuth Distance (km) Brightness Sun altitude
Rises 09:21:15 0° 297° (WNW) 4,673 - -30.0°
Reaches altitude 10° 09:24:19 10° 294° (WNW) 3,683 - -29.4°
Exits shadow 09:31:21 53° 265° (W) 1,817 8.9 -28.1°
Maximum altitude 09:33:24 64° 216° (SW) 1,656 8.9 -27.7°
Drops below altitude 10° 09:42:34 10° 137° (SE) 3,709 11.5 -26.0°
Sets 09:45:40 0° 135° (SE) 4,708 12.2 -25.4°
